CARTOSAT-2B

Last updated on Sun Apr 12 2026 00:02:34 GMT+0000 (Coordinated Universal Time)

1 36795U 10035A 26101.54880344 .00000424 00000+0 64977-4 0 9991 2 36795 98.0028 152.5007 0012323 50.8875 309.3430 14.78649137850008
UTC large
Height (km)
Speed (km/s)
/
Latitude / Longitude
Inclination (degrees)
Orbital Period (minutes)
Azimuth
Elevation
Range (km)
Doppler Factor

Next 0 passes for location: London (51.5072 / 0.1276)

Sorry there are no passes over London.
CARTOSAT-2B